Location: Monteux
(44.0348°N, 4.9972°E)
Time: 17:33:23
(UTC+00:00)

BREEZE-M DEB (TANK) - Pass Details

Date: 30 November 2020
Orbit: 297 x 20370 km, 49.3° (Epoch: 22 January)

Event Time Altitude Azimuth Distance (km) Brightness Sun altitude
Rises 16:54:10 0° 245° (WSW) 3,397 9.3 -9.0°
Reaches altitude 10° 16:57:24 10° 246° (WSW) 1,684 7.0 -9.6°
Maximum altitude 17:00:20 81° 330° (NNW) 331 1.7 -10.1°
Enters shadow 17:01:45 18° 61° (ENE) 831 3.1 -10.3°
